NORTHEAST SUFFOLK  -  Winter Weather Advisory Winter Weather Advisory        NORTHERN NASSAU  -  Winter Weather Advisory Winter Weather Advisory        NORTHWEST SUFFOLK  -  Winter Weather Advisory Winter Weather Advisory        SOUTHEAST SUFFOLK  -  Winter Weather Advisory Winter Weather Advisory        SOUTHERN NASSAU  -  Winter Weather Advisory Winter Weather Advisory        SOUTHWEST SUFFOLK  -  Winter Weather Advisory Winter Weather Advisory      

Active alerts

Northern Nassau
  Details for Northern Nassau Winter Weather Advisory
Southern Nassau
  Details for Southern Nassau Winter Weather Advisory
Northwest Suffolk
  Details for Northwest Suffolk Winter Weather Advisory
Southwest Suffolk
  Details for Southwest Suffolk Winter Weather Advisory
Northeast Suffolk
  Details for Northeast Suffolk Winter Weather Advisory
Southeast Suffolk
  Details for Southeast Suffolk Winter Weather Advisory


WXM80 ListenWXM80 Stop

You find our weather info also at:

UK Metoffice

WeatherCloud

Weather Underground

Northeastern Weather Network

AWEKAS

Citizen Weather Observer Program (CWOP)

HAMweather, WeatherForYou, PWS Weather


Weather Underground History page Text

Daily Summary for June 15, 2017 Units:  English    Metric   Both
« Previous Day
Next Day »
Daily Weekly Monthly Yearly Custom
  High: Low: Average:
Temperature: 80.7 °F 57.5 °F 67.4 °F
Dew Point: 61.0 °F 47.1 °F 54.7 °F
Humidity: 93 % 34 % 67 %
Wind Speed: 8.6 mph 0.0 mph 1.4 mph
Wind Gust: 13.8 mph - -
Wind:- - SSE
Pressure: 30.04 in 29.98 in -
Precipitation: 0.00 in    
Historical Graphs
 
 
Tabular Data for June 15, 2017
Time Temperature Dew Point Pressure Wind Wind Speed Wind Gust Humidity Rainfall Rate (Hourly)
00:04 62.0 °F 55.1 °F 30.01 in Calm     78 % 0.00 in
00:09 61.8 °F 54.9 °F 30.00 in Calm     78 % 0.00 in
00:14 61.7 °F 55.1 °F 30.00 in Calm     79 % 0.00 in
00:19 61.6 °F 55.0 °F 30.00 in Calm     79 % 0.00 in
00:24 61.4 °F 54.8 °F 30.00 in Calm     79 % 0.00 in
00:29 61.3 °F 54.7 °F 30.00 in Calm     79 % 0.00 in
00:34 61.1 °F 54.5 °F 30.01 in Calm     79 % 0.00 in
00:39 61.0 °F 54.8 °F 30.00 in Calm     80 % 0.00 in
00:44 60.9 °F 55.0 °F 30.00 in Calm     81 % 0.00 in
00:49 60.8 °F 54.9 °F 30.00 in Calm   1.2 mph 81 % 0.00 in
00:54 60.7 °F 54.8 °F 30.00 in Calm     81 % 0.00 in
00:59 60.6 °F 54.7 °F 30.00 in WSW 0.3 mph   81 % 0.00 in
01:04 60.5 °F 55.3 °F 30.00 in WSW 0.2 mph 1.2 mph 83 % 0.00 in
01:09 60.5 °F 55.3 °F 30.00 in Calm   3.5 mph 83 % 0.00 in
01:10 60.5 °F 55.3 °F 30.00 in WSW 0.1 mph 3.5 mph 83 % 0.00 in
01:15 60.5 °F 55.3 °F 30.00 in Calm     83 % 0.00 in
01:20 60.5 °F 55.3 °F 30.00 in Calm     83 % 0.00 in
01:25 60.5 °F 55.3 °F 30.00 in Calm     83 % 0.00 in
01:30 60.5 °F 55.3 °F 30.01 in Calm     83 % 0.00 in
01:35 60.5 °F 55.3 °F 30.00 in Calm     83 % 0.00 in
01:40 60.5 °F 55.3 °F 30.00 in Calm     83 % 0.00 in
01:45 60.4 °F 55.2 °F 30.00 in Calm     83 % 0.00 in
01:50 60.4 °F 55.5 °F 30.00 in Calm     84 % 0.00 in
01:55 60.3 °F 55.4 °F 30.00 in Calm   1.2 mph 84 % 0.00 in
02:00 60.2 °F 55.3 °F 30.00 in Calm     84 % 0.00 in
02:05 60.1 °F 55.2 °F 30.00 in Calm   1.2 mph 84 % 0.00 in
02:10 60.0 °F 55.5 °F 30.00 in Calm     85 % 0.00 in
02:15 59.9 °F 55.4 °F 30.00 in Calm     85 % 0.00 in
02:20 59.8 °F 55.3 °F 30.00 in Calm     85 % 0.00 in
02:25 59.8 °F 55.6 °F 30.00 in Calm     86 % 0.00 in
02:30 59.7 °F 55.5 °F 30.00 in Calm     86 % 0.00 in
02:35 59.6 °F 55.4 °F 30.00 in Calm     86 % 0.00 in
02:40 59.5 °F 55.3 °F 30.00 in Calm     86 % 0.00 in
02:45 59.4 °F 55.5 °F 30.00 in Calm   1.2 mph 87 % 0.00 in
02:50 59.4 °F 56.2 °F 30.00 in Calm     89 % 0.00 in
02:55 59.4 °F 56.2 °F 30.00 in Calm     89 % 0.00 in
03:00 59.3 °F 56.1 °F 30.00 in WSW 0.1 mph 1.0 mph 89 % 0.00 in
03:05 59.2 °F 56.0 °F 30.00 in Calm   1.2 mph 89 % 0.00 in
03:10 59.2 °F 56.0 °F 30.00 in Calm     89 % 0.00 in
03:15 59.2 °F 56.0 °F 30.00 in Calm     89 % 0.00 in
03:20 59.1 °F 55.9 °F 30.00 in Calm     89 % 0.00 in
03:25 59.1 °F 55.9 °F 30.01 in Calm     89 % 0.00 in
03:30 59.1 °F 56.2 °F 30.00 in Calm   1.2 mph 90 % 0.00 in
03:35 59.1 °F 56.2 °F 29.99 in Calm     90 % 0.00 in
03:40 59.0 °F 56.1 °F 29.99 in Calm     90 % 0.00 in
03:45 59.0 °F 56.1 °F 29.99 in Calm     90 % 0.00 in
03:50 59.0 °F 56.1 °F 29.99 in South 1.3 mph 3.5 mph 90 % 0.00 in
03:55 58.9 °F 56.0 °F 29.98 in SSE 1.3 mph 3.0 mph 90 % 0.00 in
04:00 58.9 °F 56.0 °F 29.99 in Calm     90 % 0.00 in
04:05 58.8 °F 55.9 °F 30.00 in Calm   1.2 mph 90 % 0.00 in
04:10 58.8 °F 55.9 °F 29.99 in Calm   1.2 mph 90 % 0.00 in
04:15 58.7 °F 55.8 °F 29.99 in Calm   1.0 mph 90 % 0.00 in
04:20 58.7 °F 56.1 °F 30.00 in SE 0.1 mph 3.5 mph 91 % 0.00 in
04:25 58.7 °F 55.8 °F 30.00 in Calm   2.0 mph 90 % 0.00 in
04:31 58.7 °F 55.8 °F 29.99 in Calm     90 % 0.00 in
04:36 58.6 °F 55.7 °F 29.99 in Calm   2.3 mph 90 % 0.00 in
04:41 58.6 °F 55.7 °F 29.99 in SE 0.2 mph 1.2 mph 90 % 0.00 in
04:46 58.5 °F 55.6 °F 29.99 in SE 0.9 mph 3.5 mph 90 % 0.00 in
04:51 58.4 °F 55.5 °F 29.99 in Calm     90 % 0.00 in
04:56 58.4 °F 55.5 °F 30.00 in Calm     90 % 0.00 in
05:01 58.3 °F 55.4 °F 30.00 in Calm     90 % 0.00 in
05:06 58.2 °F 55.3 °F 30.00 in Calm     90 % 0.00 in
05:11 58.2 °F 55.3 °F 29.99 in Calm     90 % 0.00 in
05:16 58.1 °F 55.2 °F 30.00 in Calm     90 % 0.00 in
05:17 58.1 °F 55.2 °F 30.00 in Calm     90 % 0.00 in
05:22 58.0 °F 55.1 °F 30.00 in Calm     90 % 0.00 in
05:27 57.9 °F 55.0 °F 30.00 in Calm   1.2 mph 90 % 0.00 in
05:29 57.8 °F 54.9 °F 30.00 in Calm   1.2 mph 90 % 0.00 in
05:34 57.8 °F 54.9 °F 30.00 in Calm     90 % 0.00 in
05:39 57.7 °F 54.8 °F 30.00 in Calm     90 % 0.00 in
05:44 57.7 °F 54.8 °F 30.00 in Calm     90 % 0.00 in
05:49 57.6 °F 55.0 °F 30.00 in Calm     91 % 0.00 in
05:54 57.5 °F 54.9 °F 30.00 in Calm     91 % 0.00 in
05:59 57.5 °F 54.9 °F 30.01 in Calm   2.3 mph 91 % 0.00 in
06:04 57.5 °F 54.9 °F 30.01 in West 0.1 mph 1.2 mph 91 % 0.00 in
06:09 57.5 °F 54.9 °F 30.01 in Calm     91 % 0.00 in
06:15 57.5 °F 54.9 °F 30.00 in Calm   1.2 mph 91 % 0.00 in
06:20 57.6 °F 55.3 °F 30.01 in Calm     92 % 0.00 in
06:25 57.9 °F 55.9 °F 30.00 in SSE 1.6 mph 5.0 mph 93 % 0.00 in
06:30 58.2 °F 56.2 °F 30.00 in South 3.6 mph 8.1 mph 93 % 0.00 in
06:35 58.5 °F 56.5 °F 30.01 in SE 2.1 mph 6.0 mph 93 % 0.00 in
06:40 59.0 °F 56.7 °F 30.01 in SE 6.1 mph 10.4 mph 92 % 0.00 in
06:45 59.4 °F 56.8 °F 30.01 in SE 4.1 mph 8.1 mph 91 % 0.00 in
06:50 59.9 °F 57.0 °F 30.01 in SE 1.4 mph 3.5 mph 90 % 0.00 in
06:55 60.4 °F 57.5 °F 30.00 in SE 1.9 mph 6.9 mph 90 % 0.00 in
07:00 61.1 °F 57.5 °F 30.01 in SE 4.8 mph 8.1 mph 88 % 0.00 in
07:01 61.3 °F 57.4 °F 30.01 in SE 3.5 mph 10.0 mph 87 % 0.00 in
07:06 61.9 °F 57.7 °F 30.01 in SSE 4.0 mph 7.0 mph 86 % 0.00 in
07:11 62.4 °F 57.8 °F 30.01 in SE 4.6 mph 6.9 mph 85 % 0.00 in
07:16 62.8 °F 58.2 °F 30.02 in SSE 1.0 mph 5.0 mph 85 % 0.00 in
07:21 63.3 °F 58.0 °F 30.01 in SE 3.6 mph 5.8 mph 83 % 0.00 in
07:26 63.7 °F 58.4 °F 30.01 in SE 1.4 mph 4.6 mph 83 % 0.00 in
07:31 64.0 °F 58.7 °F 30.02 in SE 1.2 mph 3.5 mph 83 % 0.00 in
07:36 64.2 °F 58.6 °F 30.02 in South 0.3 mph 2.3 mph 82 % 0.00 in
07:42 64.3 °F 58.3 °F 30.02 in SSE 1.2 mph 3.5 mph 81 % 0.00 in
07:47 64.4 °F 58.8 °F 30.02 in SE 2.3 mph 4.0 mph 82 % 0.00 in
07:52 64.7 °F 58.7 °F 30.02 in Calm   4.6 mph 81 % 0.00 in
07:57 65.1 °F 59.8 °F 30.02 in SE 1.9 mph 4.6 mph 83 % 0.00 in
08:02 65.3 °F 59.0 °F 30.02 in SE 2.2 mph 6.0 mph 80 % 0.00 in
08:07 65.4 °F 59.4 °F 30.03 in SSE 0.1 mph 2.3 mph 81 % 0.00 in
08:12 65.7 °F 59.7 °F 30.03 in SSE 0.2 mph 2.3 mph 81 % 0.00 in
08:17 65.9 °F 59.9 °F 30.03 in SSE 0.1 mph 2.3 mph 81 % 0.00 in
08:22 66.2 °F 60.2 °F 30.03 in Calm   1.2 mph 81 % 0.00 in
08:27 66.5 °F 60.5 °F 30.03 in SSE 2.1 mph 4.0 mph 81 % 0.00 in
08:32 66.8 °F 60.1 °F 30.03 in SE 2.4 mph 4.6 mph 79 % 0.00 in
08:37 67.2 °F 60.5 °F 30.03 in SE 1.4 mph 3.0 mph 79 % 0.00 in
08:42 67.5 °F 59.7 °F 30.03 in SE 1.3 mph 3.5 mph 76 % 0.00 in
08:47 67.7 °F 59.1 °F 30.03 in ESE 1.0 mph 6.9 mph 74 % 0.00 in
08:52 67.9 °F 59.7 °F 30.03 in SE 0.1 mph 2.0 mph 75 % 0.00 in
08:57 68.1 °F 59.9 °F 30.03 in SE 0.1 mph 1.2 mph 75 % 0.00 in
09:02 68.5 °F 61.0 °F 30.04 in ESE 0.5 mph 2.3 mph 77 % 0.00 in
09:07 68.7 °F 59.3 °F 30.04 in Calm   3.5 mph 72 % 0.00 in
09:12 69.0 °F 60.0 °F 30.04 in SE 0.6 mph 2.0 mph 73 % 0.00 in
09:17 69.2 °F 60.2 °F 30.04 in SE 0.5 mph 1.2 mph 73 % 0.00 in
09:22 69.5 °F 59.3 °F 30.03 in SE 0.1 mph 1.2 mph 70 % 0.00 in
09:27 69.9 °F 59.7 °F 30.03 in SE 1.2 mph 4.6 mph 70 % 0.00 in
09:32 70.0 °F 59.0 °F 30.04 in SE 1.2 mph 3.5 mph 68 % 0.00 in
09:34 70.1 °F 59.0 °F 30.03 in SE 2.1 mph 3.5 mph 68 % 0.00 in
09:39 70.2 °F 59.6 °F 30.04 in SE 0.1 mph 1.2 mph 69 % 0.00 in
09:44 70.5 °F 59.4 °F 30.03 in SE 1.1 mph 3.0 mph 68 % 0.00 in
09:49 71.0 °F 59.1 °F 30.03 in East 0.6 mph 3.5 mph 66 % 0.00 in
09:54 71.5 °F 56.9 °F 30.03 in SE 3.6 mph 5.8 mph 60 % 0.00 in
09:59 72.0 °F 59.6 °F 30.03 in SE 0.1 mph 3.5 mph 65 % 0.00 in
10:04 72.5 °F 57.8 °F 30.04 in SW 1.0 mph 3.5 mph 60 % 0.00 in
10:09 73.1 °F 57.0 °F 30.03 in SSW 0.8 mph 1.2 mph 57 % 0.00 in
10:14 73.6 °F 53.3 °F 30.04 in SE 0.8 mph 9.2 mph 49 % 0.00 in
10:19 74.1 °F 55.9 °F 30.04 in SE 0.4 mph 5.8 mph 53 % 0.00 in
10:24 74.3 °F 56.6 °F 30.04 in SE 0.2 mph 1.2 mph 54 % 0.00 in
10:29 74.6 °F 57.4 °F 30.04 in SSE 0.3 mph 2.3 mph 55 % 0.00 in
10:35 74.8 °F 56.0 °F 30.04 in SSE 0.5 mph 1.0 mph 52 % 0.00 in
10:40 74.9 °F 53.3 °F 30.04 in SE 3.3 mph 3.5 mph 47 % 0.00 in
10:45 74.8 °F 53.2 °F 30.04 in SE 3.9 mph 5.8 mph 47 % 0.00 in
10:50 74.7 °F 52.5 °F 30.04 in SSE 0.7 mph 2.3 mph 46 % 0.00 in
10:55 74.5 °F 51.8 °F 30.04 in SE 0.5 mph 5.8 mph 45 % 0.00 in
11:00 74.2 °F 52.7 °F 30.04 in SE 1.7 mph 9.2 mph 47 % 0.00 in
11:05 74.3 °F 53.3 °F 30.04 in WSW 0.2 mph 3.5 mph 48 % 0.00 in
11:10 74.8 °F 54.4 °F 30.04 in SSW 2.0 mph 3.5 mph 49 % 0.00 in
11:15 75.3 °F 54.8 °F 30.04 in SW 0.3 mph 4.6 mph 49 % 0.00 in
11:20 75.8 °F 54.7 °F 30.04 in SW 2.6 mph 5.8 mph 48 % 0.00 in
11:25 76.3 °F 52.2 °F 30.04 in SE 2.3 mph 4.6 mph 43 % 0.00 in
11:30 77.0 °F 54.6 °F 30.04 in SSE 1.8 mph 4.6 mph 46 % 0.00 in
11:35 77.6 °F 54.6 °F 30.04 in SW 1.6 mph 4.0 mph 45 % 0.00 in
11:40 77.8 °F 51.5 °F 30.03 in SE 2.0 mph 5.8 mph 40 % 0.00 in
11:45 77.5 °F 55.1 °F 30.03 in SE 0.9 mph 3.5 mph 46 % 0.00 in
11:50 77.3 °F 50.4 °F 30.03 in SSE 5.3 mph 9.0 mph 39 % 0.00 in
11:55 76.8 °F 51.3 °F 30.03 in SSW 4.0 mph 6.9 mph 41 % 0.00 in
12:00 76.5 °F 49.7 °F 30.03 in South 1.8 mph 4.6 mph 39 % 0.00 in
12:02 76.4 °F 51.6 °F 30.03 in WSW 1.0 mph 3.5 mph 42 % 0.00 in
12:07 76.5 °F 50.4 °F 30.03 in SSE 2.0 mph 6.9 mph 40 % 0.00 in
12:12 76.5 °F 50.4 °F 30.04 in ESE 0.7 mph 4.6 mph 40 % 0.00 in
12:17 76.7 °F 55.0 °F 30.03 in SSW 1.6 mph 3.5 mph 47 % 0.00 in
12:22 77.1 °F 51.6 °F 30.03 in SSE 2.8 mph 6.0 mph 41 % 0.00 in
12:27 77.2 °F 49.6 °F 30.03 in SSW 4.2 mph 5.8 mph 38 % 0.00 in
12:32 77.1 °F 50.9 °F 30.03 in SSW 1.2 mph 3.5 mph 40 % 0.00 in
12:37 77.0 °F 51.5 °F 30.03 in SW 2.0 mph 4.6 mph 41 % 0.00 in
12:42 76.6 °F 51.8 °F 30.03 in SE 1.9 mph 7.0 mph 42 % 0.00 in
12:47 76.9 °F 50.1 °F 30.03 in SSE 4.4 mph 10.4 mph 39 % 0.00 in
12:52 77.2 °F 53.6 °F 30.03 in SW 3.2 mph 4.6 mph 44 % 0.00 in
12:57 77.7 °F 51.5 °F 30.02 in SE 0.5 mph 3.5 mph 40 % 0.00 in
13:02 78.6 °F 52.3 °F 30.02 in SSW 3.4 mph 5.8 mph 40 % 0.00 in
13:07 79.0 °F 51.9 °F 30.02 in SE 0.5 mph 6.9 mph 39 % 0.00 in
13:12 79.0 °F 51.9 °F 30.02 in SSW 2.8 mph 5.8 mph 39 % 0.00 in
13:17 79.4 °F 50.9 °F 30.02 in SW 2.1 mph 3.5 mph 37 % 0.00 in
13:22 79.6 °F 50.3 °F 30.02 in South 2.1 mph 6.9 mph 36 % 0.00 in
13:27 79.5 °F 49.4 °F 30.02 in SW 0.6 mph 3.5 mph 35 % 0.00 in
13:32 79.8 °F 52.6 °F 30.02 in SSW 1.4 mph 4.0 mph 39 % 0.00 in
13:37 80.3 °F 55.1 °F 30.02 in SW 0.8 mph 3.5 mph 42 % 0.00 in
13:42 80.5 °F 52.6 °F 30.02 in SSW 2.4 mph 8.1 mph 38 % 0.00 in
13:47 80.7 °F 49.7 °F 30.02 in SSW 4.2 mph 5.0 mph 34 % 0.00 in
13:52 80.4 °F 50.2 °F 30.02 in SE 3.0 mph 6.9 mph 35 % 0.00 in
13:57 79.8 °F 52.6 °F 30.02 in SE 2.2 mph 4.6 mph 39 % 0.00 in
14:08 78.7 °F 50.2 °F 30.01 in South 2.4 mph 3.5 mph 37 % 0.00 in
14:13 78.0 °F 48.9 °F 30.01 in SE 3.4 mph 11.5 mph 36 % 0.00 in
14:18 77.9 °F 54.8 °F 30.01 in SE 0.8 mph 2.3 mph 45 % 0.00 in
14:23 78.2 °F 53.9 °F 30.01 in SE 0.7 mph 2.3 mph 43 % 0.00 in
14:28 78.4 °F 53.4 °F 30.01 in SSW 1.0 mph 3.5 mph 42 % 0.00 in
14:33 78.5 °F 51.5 °F 30.01 in SW 2.6 mph 6.9 mph 39 % 0.00 in
14:38 78.5 °F 51.5 °F 30.01 in SE 0.6 mph 4.6 mph 39 % 0.00 in
14:43 78.8 °F 48.8 °F 30.02 in SSW 3.5 mph 8.1 mph 35 % 0.00 in
14:48 78.4 °F 48.5 °F 30.01 in SSW 2.4 mph 8.1 mph 35 % 0.00 in
14:53 77.7 °F 47.1 °F 30.01 in SSE 8.6 mph 12.7 mph 34 % 0.00 in
14:58 76.8 °F 47.1 °F 30.01 in SE 0.4 mph 3.5 mph 35 % 0.00 in
15:03 76.8 °F 48.6 °F 30.01 in SE 2.5 mph 11.0 mph 37 % 0.00 in
15:08 76.5 °F 49.0 °F 30.00 in SSW 1.1 mph 11.5 mph 38 % 0.00 in
15:13 76.3 °F 48.8 °F 30.00 in SE 1.1 mph 4.6 mph 38 % 0.00 in
15:18 76.1 °F 47.9 °F 30.00 in SSE 4.6 mph 10.4 mph 37 % 0.00 in
15:23 76.1 °F 49.3 °F 30.00 in SSE 0.6 mph 3.5 mph 39 % 0.00 in
15:28 76.2 °F 50.1 °F 30.00 in Calm   2.3 mph 40 % 0.00 in
15:33 76.3 °F 48.8 °F 30.00 in South 2.4 mph 5.8 mph 38 % 0.00 in
15:38 76.5 °F 49.0 °F 30.00 in SSE 1.3 mph 3.5 mph 38 % 0.00 in
15:43 76.8 °F 51.3 °F 30.00 in SE 0.7 mph 4.6 mph 41 % 0.00 in
15:48 77.1 °F 50.2 °F 30.00 in SE 1.4 mph 3.5 mph 39 % 0.00 in
15:53 76.9 °F 51.4 °F 30.00 in SE 4.7 mph 13.8 mph 41 % 0.00 in
15:58 76.6 °F 49.8 °F 30.01 in SE 0.6 mph 3.5 mph 39 % 0.00 in
16:03 76.2 °F 50.1 °F 30.01 in SSE 5.2 mph 11.5 mph 40 % 0.00 in
16:08 75.7 °F 49.7 °F 30.00 in SE 7.2 mph 10.4 mph 40 % 0.00 in
16:13 75.3 °F 51.3 °F 30.00 in SSE 0.6 mph 6.9 mph 43 % 0.00 in
16:18 75.3 °F 50.6 °F 30.00 in SSE 0.7 mph 3.5 mph 42 % 0.00 in
16:23 75.4 °F 50.7 °F 30.00 in SW 2.2 mph 5.0 mph 42 % 0.00 in
16:28 75.7 °F 52.2 °F 30.00 in SSE 2.4 mph 4.6 mph 44 % 0.00 in
16:33 75.5 °F 50.8 °F 30.00 in SSE 4.6 mph 10.4 mph 42 % 0.00 in
16:38 75.4 °F 53.8 °F 30.00 in SE 2.1 mph 5.8 mph 47 % 0.00 in
16:43 75.1 °F 50.4 °F 30.00 in SSE 6.1 mph 11.5 mph 42 % 0.00 in
16:48 74.9 °F 50.3 °F 30.00 in SSW 4.1 mph 6.9 mph 42 % 0.00 in
16:53 74.7 °F 50.7 °F 30.00 in South 0.9 mph 3.5 mph 43 % 0.00 in
16:59 74.5 °F 50.5 °F 30.00 in SSE 0.9 mph 3.5 mph 43 % 0.00 in
17:04 74.4 °F 51.1 °F 30.00 in SSE 2.6 mph 5.8 mph 44 % 0.00 in
17:09 74.2 °F 51.5 °F 30.00 in South 0.4 mph 3.5 mph 45 % 0.00 in
17:14 74.1 °F 52.0 °F 30.00 in SSE 0.3 mph 1.2 mph 46 % 0.00 in
17:19 73.9 °F 51.2 °F 30.00 in SE 4.5 mph 8.0 mph 45 % 0.00 in
17:24 73.1 °F 50.5 °F 30.00 in SE 3.3 mph 11.5 mph 45 % 0.00 in
17:29 72.6 °F 51.2 °F 29.99 in SE 4.5 mph 7.0 mph 47 % 0.00 in
17:34 72.2 °F 50.8 °F 30.00 in SSE 8.2 mph 11.5 mph 47 % 0.00 in
17:39 71.8 °F 51.6 °F 30.00 in SSE 0.7 mph 2.3 mph 49 % 0.00 in
17:44 71.8 °F 52.7 °F 30.00 in ESE 3.8 mph 9.0 mph 51 % 0.00 in
17:49 71.6 °F 51.4 °F 30.00 in SSW 3.2 mph 5.0 mph 49 % 0.00 in
17:54 71.4 °F 51.8 °F 29.99 in South 1.3 mph 5.8 mph 50 % 0.00 in
17:59 71.3 °F 52.2 °F 29.99 in SSE 0.2 mph 1.2 mph 51 % 0.00 in
18:04 71.1 °F 52.0 °F 29.99 in SE 1.2 mph 6.0 mph 51 % 0.00 in
18:09 70.9 °F 52.9 °F 29.99 in SW 0.6 mph 2.3 mph 53 % 0.00 in
18:14 70.7 °F 52.7 °F 29.99 in SE 0.8 mph 2.0 mph 53 % 0.00 in
18:19 70.5 °F 53.1 °F 29.99 in SSE 2.2 mph 3.0 mph 54 % 0.00 in
18:24 70.2 °F 52.8 °F 29.98 in SSE 0.7 mph 4.6 mph 54 % 0.00 in
18:29 70.0 °F 53.1 °F 29.98 in SE 3.3 mph 12.0 mph 55 % 0.00 in
18:34 69.8 °F 52.9 °F 29.98 in SE 3.3 mph 9.2 mph 55 % 0.00 in
18:39 69.5 °F 53.1 °F 29.99 in SE 5.3 mph 9.2 mph 56 % 0.00 in
18:44 69.3 °F 53.4 °F 29.98 in SSE 2.8 mph 6.9 mph 57 % 0.00 in
18:50 69.0 °F 53.1 °F 29.98 in SSE 3.9 mph 9.2 mph 57 % 0.00 in
18:55 68.9 °F 53.5 °F 29.99 in SSE 2.4 mph 5.8 mph 58 % 0.00 in
19:00 68.7 °F 53.8 °F 29.99 in ESE 4.6 mph 9.2 mph 59 % 0.00 in
19:05 68.5 °F 54.1 °F 29.99 in South 2.6 mph 5.8 mph 60 % 0.00 in
19:10 68.3 °F 54.3 °F 29.99 in SSE 4.5 mph 10.4 mph 61 % 0.00 in
19:15 68.2 °F 54.7 °F 29.99 in SE 3.3 mph 11.5 mph 62 % 0.00 in
19:20 68.1 °F 54.6 °F 29.99 in SE 3.4 mph 6.9 mph 62 % 0.00 in
19:25 67.9 °F 54.4 °F 29.99 in SE 4.1 mph 6.9 mph 62 % 0.00 in
19:30 67.7 °F 55.1 °F 29.99 in SE 1.4 mph 2.3 mph 64 % 0.00 in
19:35 67.6 °F 55.0 °F 29.99 in South 0.5 mph 2.3 mph 64 % 0.00 in
19:40 67.5 °F 54.9 °F 30.00 in SE 1.6 mph 5.8 mph 64 % 0.00 in
19:45 67.4 °F 54.8 °F 30.00 in SE 2.6 mph 6.0 mph 64 % 0.00 in
19:50 67.2 °F 54.6 °F 30.00 in SE 0.9 mph 3.5 mph 64 % 0.00 in
19:55 67.1 °F 54.9 °F 30.00 in SE 2.2 mph 6.9 mph 65 % 0.00 in
20:00 67.0 °F 54.8 °F 29.99 in SE 4.1 mph 5.8 mph 65 % 0.00 in
20:05 66.8 °F 54.7 °F 30.00 in SSE 1.5 mph 4.6 mph 65 % 0.00 in
20:06 66.8 °F 54.7 °F 30.00 in SSE 0.4 mph 2.3 mph 65 % 0.00 in
20:11 66.6 °F 54.5 °F 30.00 in SE 2.1 mph 4.6 mph 65 % 0.00 in
20:16 66.5 °F 54.4 °F 30.00 in SE 1.7 mph 5.8 mph 65 % 0.00 in
20:21 66.4 °F 54.3 °F 30.00 in SSE 0.5 mph 4.6 mph 65 % 0.00 in
20:26 66.4 °F 54.7 °F 29.99 in SSE 1.2 mph 3.5 mph 66 % 0.00 in
20:31 66.3 °F 55.0 °F 30.00 in SSE 0.6 mph 4.6 mph 67 % 0.00 in
20:36 66.3 °F 55.4 °F 30.00 in SE 2.4 mph 4.0 mph 68 % 0.00 in
20:41 66.2 °F 55.3 °F 30.00 in SE 3.4 mph 6.9 mph 68 % 0.00 in
20:46 66.1 °F 55.6 °F 30.00 in SSE 1.2 mph 3.5 mph 69 % 0.00 in
20:52 65.9 °F 55.0 °F 30.00 in ESE 1.2 mph 6.9 mph 68 % 0.00 in
20:57 65.8 °F 55.3 °F 30.00 in SE 2.8 mph 5.8 mph 69 % 0.00 in
21:02 65.6 °F 55.5 °F 30.00 in SE 2.9 mph 4.6 mph 70 % 0.00 in
21:07 65.5 °F 55.5 °F 30.00 in SE 2.8 mph 8.1 mph 70 % 0.00 in
21:12 65.4 °F 55.4 °F 30.00 in SSE 2.4 mph 5.8 mph 70 % 0.00 in
21:17 65.3 °F 55.7 °F 30.00 in SE 0.6 mph 2.3 mph 71 % 0.00 in
21:22 65.3 °F 55.7 °F 30.01 in SE 2.8 mph 4.6 mph 71 % 0.00 in
21:27 65.1 °F 55.8 °F 30.01 in SE 4.4 mph 5.8 mph 72 % 0.00 in
21:32 65.0 °F 55.8 °F 30.00 in SE 1.2 mph 4.6 mph 72 % 0.00 in
21:37 64.8 °F 55.9 °F 30.01 in SE 2.2 mph 5.0 mph 73 % 0.00 in
21:42 64.6 °F 56.1 °F 30.01 in SE 3.1 mph 5.8 mph 74 % 0.00 in
21:47 64.5 °F 56.0 °F 30.01 in SE 1.0 mph 3.5 mph 74 % 0.00 in
21:52 64.3 °F 56.2 °F 30.01 in ESE 4.8 mph 8.1 mph 75 % 0.00 in
21:57 64.1 °F 56.0 °F 30.01 in SE 3.2 mph 6.9 mph 75 % 0.00 in
22:02 63.9 °F 56.2 °F 30.01 in SE 0.7 mph 3.5 mph 76 % 0.00 in
22:07 63.8 °F 56.4 °F 30.01 in SE 0.7 mph 3.5 mph 77 % 0.00 in
22:12 63.7 °F 56.4 °F 30.02 in Calm   2.3 mph 77 % 0.00 in
22:17 63.5 °F 56.5 °F 30.02 in SE 0.1 mph 1.2 mph 78 % 0.00 in
22:22 63.4 °F 56.4 °F 30.02 in SE 0.1 mph 1.0 mph 78 % 0.00 in
22:27 63.3 °F 56.7 °F 30.01 in Calm   2.3 mph 79 % 0.00 in
22:32 63.2 °F 56.6 °F 30.01 in SE 0.1 mph   79 % 0.00 in
22:37 63.0 °F 56.4 °F 30.01 in Calm   1.2 mph 79 % 0.00 in
22:42 63.0 °F 56.7 °F 30.01 in Calm     80 % 0.00 in
22:47 62.9 °F 56.6 °F 30.01 in Calm     80 % 0.00 in
22:52 62.8 °F 56.9 °F 30.01 in Calm     81 % 0.00 in
22:57 62.7 °F 56.8 °F 30.01 in Calm     81 % 0.00 in
23:02 62.6 °F 57.0 °F 30.01 in Calm     82 % 0.00 in
23:08 62.5 °F 56.9 °F 30.01 in Calm     82 % 0.00 in
23:13 62.5 °F 56.9 °F 30.02 in Calm     82 % 0.00 in
23:18 62.4 °F 56.8 °F 30.01 in Calm     82 % 0.00 in
23:23 62.4 °F 56.8 °F 30.02 in Calm     82 % 0.00 in
23:28 62.4 °F 56.8 °F 30.01 in Calm     82 % 0.00 in
23:33 62.3 °F 56.7 °F 30.01 in Calm     82 % 0.00 in
23:38 62.3 °F 56.7 °F 30.01 in Calm     82 % 0.00 in
23:43 62.3 °F 57.1 °F 30.01 in Calm     83 % 0.00 in
23:48 62.2 °F 57.0 °F 30.01 in Calm     83 % 0.00 in
23:53 62.2 °F 57.0 °F 30.01 in Calm     83 % 0.00 in
23:58 62.2 °F 57.0 °F 30.01 in Calm     83 % 0.00 in
Crab Meadow Weather
Compliments of Weather Underground - 3 mb

Script developed by  Jim McMurry - jmcmurry@mwt.net Adapted for the template by  Wim van der Kuil - Leuven-Template.eu

Rain: The total amount of precipitation the earth receives each year as snow, hail, and rain is equivalent to 10 million gallons of water for every person in the United States.